Weather History for Apalachicola, FL

Change the Weather History Date:

Wednesday, October 16, 2013

  Actual Average Record
Temperature  
Mean Temperature 75 °F 71 °F  
Max Temperature 82 °F 81 °F 88 °F (1998)
Min Temperature 67 °F 61 °F 43 °F (1977)
Degree Days  
Heating Degree Days 0    
Month to date heating degree days 0  
Since 1 July heating degree days 0  
Cooling Degree Days 10    
Month to date cooling degree days 185  
Year to date cooling degree days 2582  
Growing Degree Days 24 (Base 50)    
Moisture  
Dew Point 66 °F    
Average Humidity 78    
Maximum Humidity 93    
Minimum Humidity 62    
Precipitation  
Precipitation 0.00 in 0.13 in 3.20 in (1993)
Month to date precipitation 2.37 2.50  
Year to date precipitation 51.89 49.17  
Sea Level Pressure  
Sea Level Pressure 29.98 in    
Wind  
Wind Speed 4 mph (ESE)    
Max Wind Speed 10 mph    
Max Gust Speed 15 mph    
Visibility 10 miles    
Events      
T = Trace of Precipitation, MM = Missing Value Source: NWS Daily Summary

Daily Weather History Graph

Daily Weather History Graph

Search for Another Location

Airport:

Trip Planner

Search our weather history database for the weather conditions in past years. The results will help you decide how hot, cold, wet, or windy it might be!

Date:

Astronomy

Oct. 16, 2013 Rise Set
Actual Time 7:42 AM EDT 7:08 PM EDT
Civil Twilight 7:18 AM EDT 7:32 PM EDT
Nautical Twilight 6:50 AM EDT 7:59 PM EDT
Astronomical Twilight 6:23 AM EDT 8:27 PM EDT
Moon 5:40 PM EDT (10/16) 5:19 AM EDT (10/16)
Length of Visible Light 12h 13m
Length of Day
11h 25m
Waxing Gibbous, 94% of the Moon is Illuminated
Oct 16
Waxing Gibbous
Oct 18
Full
Oct 26
Last Quarter
Nov 3
New
Nov 10
First Quarter

Hourly Weather History & Observations

Time (EDT) Temp. Heat Index Dew Point Humidity Pressure Visibility Wind Dir Wind Speed Gust Speed Precip Events Conditions
12:53 AM 71.1 °F - 64.9 °F 81% 30.00 in 10.0 mi NE 6.9 mph - N/A   Clear
1:53 AM 69.1 °F - 64.0 °F 84% 29.99 in 10.0 mi ENE 4.6 mph - N/A   Clear
2:53 AM 68.0 °F - 64.0 °F 87% 29.98 in 10.0 mi NE 4.6 mph - N/A   Clear
3:53 AM 66.9 °F - 64.0 °F 90% 29.98 in 10.0 mi Calm Calm - N/A   Clear
4:53 AM 66.9 °F - 64.0 °F 90% 29.97 in 10.0 mi NE 4.6 mph - N/A   Scattered Clouds
5:53 AM 66.9 °F - 64.0 °F 90% 29.98 in 10.0 mi Calm Calm - N/A   Overcast
6:53 AM 69.1 °F - 64.9 °F 87% 29.99 in 10.0 mi NE 4.6 mph - N/A   Overcast
7:53 AM 68.0 °F - 64.0 °F 87% 29.99 in 10.0 mi NE 3.5 mph - N/A   Overcast
8:53 AM 71.1 °F - 64.9 °F 81% 30.00 in 10.0 mi NE 5.8 mph - N/A   Clear
9:53 AM 75.9 °F - 66.0 °F 71% 30.01 in 10.0 mi ENE 6.9 mph - N/A   Clear
10:53 AM 79.0 °F - 68.0 °F 69% 30.01 in 10.0 mi East 8.1 mph - N/A   Clear
11:53 AM 79.0 °F - 68.0 °F 69% 30.01 in 10.0 mi Variable 5.8 mph - N/A   Partly Cloudy
12:53 PM 81.0 °F 83.8 °F 68.0 °F 65% 30.00 in 10.0 mi South 8.1 mph - N/A   Mostly Cloudy
1:53 PM 80.1 °F 82.3 °F 66.9 °F 64% 29.98 in 10.0 mi South 8.1 mph - N/A   Overcast
2:53 PM 81.0 °F 84.1 °F 69.1 °F 67% 29.96 in 10.0 mi SSE 5.8 mph - N/A   Clear
3:53 PM 81.0 °F 84.1 °F 69.1 °F 67% 29.95 in 10.0 mi South 9.2 mph - N/A   Clear
4:53 PM 80.1 °F 82.7 °F 68.0 °F 67% 29.95 in 10.0 mi South 8.1 mph - N/A   Clear
5:53 PM 79.0 °F - 68.0 °F 69% 29.94 in 10.0 mi South 8.1 mph - N/A   Clear
6:53 PM 77.0 °F - 68.0 °F 74% 29.95 in 10.0 mi South 5.8 mph - N/A   Clear
7:53 PM 75.0 °F - 68.0 °F 79% 29.96 in 10.0 mi SSW 3.5 mph - N/A   Clear
8:53 PM 73.0 °F - 68.0 °F 84% 29.97 in 10.0 mi Calm Calm - N/A   Clear
9:53 PM 71.1 °F - 66.9 °F 87% 29.98 in 10.0 mi Calm Calm - N/A   Clear
10:53 PM 69.1 °F - 66.0 °F 90% 29.99 in 10.0 mi Calm Calm - N/A   Clear
11:53 PM 69.1 °F - 66.0 °F 90% 29.98 in 10.0 mi Calm Calm - N/A   Clear